When you browse on this site, cookies collect data to enhance your experience and personalize the content and advertising you see.
Visit our Privacy Policy to learn more. By continuing to use the site, you agree to this use of cookies and data.
  • In Hungary
  • List of Countries
  • For 7 days
  • Water Temperature
  • Weather Map
  • News
  • Weather Widgets
  • user-avatar
    Login

    Hourly Weather Elka

    Today, 15 October, Tuesday

    Time Temperature Precipitation Wind Pressure Humidity
    00:00 +5°C° 0 mm 2 mps 747 mmHg 88%
    01:00 +5°C° 0.4 mm 2 mps 746 mmHg 91%
    02:00 +6°C° 0.4 mm 2 mps 746 mmHg 93%
    03:00 +6°C° 0.4 mm 2 mps 745 mmHg 95%
    04:00 +5°C° 0.3 mm 2 mps 745 mmHg 95%
    05:00 +5°C° 0.3 mm 2 mps 744 mmHg 95%
    06:00 +6°C° 0.3 mm 1 mps 744 mmHg 94%
    07:00 +6°C° 0 mm 1 mps 744 mmHg 93%
    08:00 +7°C° 0 mm 1 mps 744 mmHg 92%
    09:00 +6°C° 0 mm 0 mps 744 mmHg 92%
    10:00 +7°C° 0 mm 1 mps 744 mmHg 89%
    11:00 +7°C° 0 mm 2 mps 744 mmHg 86%
    12:00 +7°C° 0 mm 2 mps 745 mmHg 83%
    13:00 +7°C° 0.1 mm 3 mps 745 mmHg 81%
    14:00 +6°C° 0.1 mm 4 mps 746 mmHg 79%
    15:00 +6°C° 0.1 mm 4 mps 747 mmHg 77%
    16:00 +5°C° 0 mm 4 mps 747 mmHg 77%
    17:00 +3°C° 0 mm 5 mps 748 mmHg 76%
    18:00 +3°C° 0 mm 5 mps 749 mmHg 75%
    19:00 +2°C° 0 mm 5 mps 749 mmHg 75%
    20:00 +3°C° 0 mm 4 mps 750 mmHg 74%
    21:00 +3°C° 0 mm 4 mps 750 mmHg 74%
    22:00 +1°C° 0 mm 5 mps 751 mmHg 79%
    23:00 +1°C° 0 mm 5 mps 752 mmHg 84%

    Tomorrow, 16 October, Wednesday

    Time Temperature Precipitation Wind Pressure Humidity
    00:00 +1°C° 0 mm 5 mps 752 mmHg 89%
    01:00 +1°C° 0 mm 5 mps 753 mmHg 87%
    02:00 +1°C° 0 mm 5 mps 754 mmHg 85%
    03:00 +1°C° 0 mm 5 mps 755 mmHg 84%
    04:00 +1°C° 0 mm 5 mps 755 mmHg 85%
    05:00 0°C° 0 mm 5 mps 755 mmHg 86%
    06:00 0°C° 0 mm 5 mps 755 mmHg 87%
    07:00 0°C° 0 mm 5 mps 756 mmHg 83%
    08:00 +1°C° 0 mm 5 mps 757 mmHg 79%
    09:00 +1°C° 0 mm 5 mps 757 mmHg 75%
    10:00 +2°C° 0 mm 5 mps 757 mmHg 72%
    11:00 +2°C° 0 mm 5 mps 758 mmHg 69%
    12:00 +3°C° 0 mm 5 mps 758 mmHg 67%
    13:00 +3°C° 0 mm 5 mps 758 mmHg 67%
    14:00 +3°C° 0 mm 5 mps 758 mmHg 67%
    15:00 +4°C° 0 mm 4 mps 759 mmHg 68%
    16:00 +3°C° 0 mm 4 mps 759 mmHg 73%
    17:00 +2°C° 0 mm 3 mps 759 mmHg 78%
    18:00 +2°C° 0 mm 2 mps 759 mmHg 84%
    19:00 +1°C° 0 mm 2 mps 759 mmHg 85%
    20:00 +1°C° 0 mm 2 mps 759 mmHg 86%
    21:00 +2°C° 0 mm 1 mps 759 mmHg 88%
    22:00 +2°C° 0 mm 1 mps 759 mmHg 87%
    23:00 +2°C° 0 mm 1 mps 759 mmHg 87%

    Day after tomorrow, 17 October, Thursday

    Time Temperature Precipitation Wind Pressure Humidity
    00:00 +2°C° 0 mm 1 mps 759 mmHg 87%
    01:00 +1°C° 0 mm 2 mps 759 mmHg 88%
    02:00 +1°C° 0 mm 2 mps 759 mmHg 88%
    03:00 +1°C° 0 mm 2 mps 759 mmHg 89%
    04:00 0°C° 0.5 mm 3 mps 758 mmHg 92%
    05:00 -1°C° 0.5 mm 4 mps 758 mmHg 94%
    06:00 -1°C° 0.5 mm 4 mps 757 mmHg 97%
    07:00 0°C° 0.2 mm 5 mps 756 mmHg 92%
    08:00 0°C° 0.2 mm 5 mps 755 mmHg 88%
    09:00 +1°C° 0.2 mm 6 mps 755 mmHg 84%
    10:00 +2°C° 0 mm 6 mps 754 mmHg 80%
    11:00 +3°C° 0 mm 7 mps 753 mmHg 76%
    12:00 +4°C° 0 mm 7 mps 752 mmHg 71%
    13:00 +4°C° 0 mm 7 mps 751 mmHg 72%
    14:00 +4°C° 0 mm 6 mps 751 mmHg 73%
    15:00 +5°C° 0 mm 6 mps 750 mmHg 74%
    16:00 +5°C° 0.2 mm 6 mps 749 mmHg 77%
    17:00 +5°C° 0.2 mm 6 mps 749 mmHg 81%
    18:00 +5°C° 0.2 mm 7 mps 748 mmHg 85%
    19:00 +7°C° 0.6 mm 6 mps 748 mmHg 88%
    20:00 +7°C° 0.6 mm 6 mps 747 mmHg 91%
    21:00 +7°C° 0.6 mm 5 mps 747 mmHg 94%
    22:00 +7°C° 0.1 mm 5 mps 747 mmHg 94%
    23:00 +7°C° 0.1 mm 5 mps 747 mmHg 94%

    18 October, Friday

    Time Temperature Precipitation Wind Pressure Humidity
    00:00 +7°C° 0.1 mm 5 mps 747 mmHg 94%
    01:00 +4°C° 0 mm 6 mps 748 mmHg 89%
    02:00 +3°C° 0 mm 6 mps 749 mmHg 84%
    03:00 +1°C° 0 mm 6 mps 749 mmHg 79%
    04:00 +1°C° 0 mm 6 mps 750 mmHg 78%
    05:00 +1°C° 0 mm 6 mps 751 mmHg 77%
    06:00 -1°C° 0 mm 6 mps 751 mmHg 76%
    07:00 -1°C° 0 mm 6 mps 752 mmHg 76%
    08:00 -1°C° 0 mm 6 mps 753 mmHg 77%
    09:00 -1°C° 0 mm 6 mps 754 mmHg 78%
    10:00 -1°C° 0 mm 6 mps 754 mmHg 76%
    11:00 0°C° 0 mm 5 mps 755 mmHg 74%
    12:00 0°C° 0 mm 5 mps 755 mmHg 72%
    13:00 0°C° 0 mm 5 mps 756 mmHg 72%
    14:00 0°C° 0 mm 5 mps 756 mmHg 72%
    15:00 0°C° 0 mm 5 mps 757 mmHg 71%
    16:00 0°C° 0 mm 4 mps 758 mmHg 72%
    17:00 -1°C° 0 mm 4 mps 758 mmHg 73%
    18:00 -1°C° 0 mm 4 mps 759 mmHg 75%
    19:00 -2°C° 0 mm 4 mps 759 mmHg 76%
    20:00 -1°C° 0 mm 3 mps 760 mmHg 77%
    21:00 -1°C° 0 mm 3 mps 760 mmHg 78%
    22:00 -2°C° 0 mm 3 mps 760 mmHg 80%
    23:00 -2°C° 0 mm 2 mps 760 mmHg 82%

    19 October, Saturday

    Time Temperature Precipitation Wind Pressure Humidity
    00:00 -3°C° 0 mm 2 mps 761 mmHg 84%
    01:00 -3°C° 0 mm 2 mps 761 mmHg 85%
    02:00 -1°C° 0 mm 1 mps 761 mmHg 85%
    03:00 -1°C° 0 mm 1 mps 761 mmHg 86%
    04:00 -1°C° 0 mm 1 mps 762 mmHg 85%
    05:00 -1°C° 0 mm 1 mps 762 mmHg 85%
    06:00 -1°C° 0 mm 1 mps 762 mmHg 85%
    07:00 -2°C° 0 mm 2 mps 762 mmHg 79%
    08:00 -1°C° 0 mm 2 mps 763 mmHg 74%
    09:00 +1°C° 0 mm 2 mps 763 mmHg 69%
    10:00 0°C° 0 mm 3 mps 763 mmHg 66%
    11:00 +1°C° 0 mm 3 mps 763 mmHg 63%
    12:00 +2°C° 0 mm 3 mps 763 mmHg 60%
    13:00 +2°C° 0 mm 3 mps 762 mmHg 62%
    14:00 +2°C° 0 mm 3 mps 762 mmHg 64%
    15:00 +2°C° 0 mm 3 mps 762 mmHg 65%
    16:00 +2°C° 0 mm 2 mps 762 mmHg 71%
    17:00 +1°C° 0 mm 2 mps 762 mmHg 76%
    18:00 -1°C° 0 mm 2 mps 762 mmHg 82%
    19:00 -1°C° 0 mm 2 mps 762 mmHg 82%
    20:00 -1°C° 0 mm 2 mps 762 mmHg 83%
    21:00 -1°C° 0 mm 2 mps 762 mmHg 84%
    22:00 -1°C° 0 mm 2 mps 761 mmHg 83%
    23:00 -1°C° 0 mm 2 mps 761 mmHg 83%

    20 October, Sunday

    Time Temperature Precipitation Wind Pressure Humidity
    00:00 -1°C° 0 mm 2 mps 761 mmHg 82%
    01:00 -1°C° 0 mm 2 mps 761 mmHg 82%
    02:00 -1°C° 0 mm 2 mps 761 mmHg 83%
    03:00 -1°C° 0 mm 2 mps 760 mmHg 83%
    04:00 -1°C° 0 mm 2 mps 760 mmHg 84%
    05:00 -1°C° 0 mm 2 mps 760 mmHg 85%
    06:00 -1°C° 0 mm 2 mps 760 mmHg 87%
    07:00 +1°C° 0 mm 2 mps 760 mmHg 83%
    08:00 +1°C° 0 mm 3 mps 760 mmHg 80%
    09:00 +2°C° 0 mm 3 mps 760 mmHg 77%
    10:00 +2°C° 0 mm 3 mps 760 mmHg 76%
    11:00 +3°C° 0 mm 3 mps 760 mmHg 75%
    12:00 +4°C° 0 mm 3 mps 760 mmHg 74%
    13:00 +5°C° 0 mm 2 mps 760 mmHg 76%
    14:00 +5°C° 0 mm 2 mps 760 mmHg 79%
    15:00 +5°C° 0 mm 2 mps 760 mmHg 82%
    16:00 +4°C° 0 mm 2 mps 760 mmHg 85%
    17:00 +3°C° 0 mm 2 mps 761 mmHg 88%
    18:00 +3°C° 0 mm 2 mps 761 mmHg 92%
    19:00 +3°C° 0 mm 2 mps 761 mmHg 92%
    20:00 +3°C° 0 mm 2 mps 761 mmHg 93%
    21:00 +2°C° 0 mm 2 mps 761 mmHg 94%
    22:00 +3°C° 0 mm 2 mps 761 mmHg 94%
    23:00 +3°C° 0 mm 2 mps 761 mmHg 94%
    Show more